Flag for U.S.A. Weather past 2 weeks in Mason, Ohio, U.S.A.

Now
44 °F

Light rain. Mostly cloudy.


Feels Like: 42 °F
Forecast: 35 / 46 °F
Wind: 5 mph from West

Location: Butler County Regional Airport

Current Time: Dec 28, 2014 at 1:41:01 AM

Latest Report: Dec 28, 2014 at 1:03 AM


Visibility: 7 mi

Pressure: 30.05 "Hg

Humidity: 96%

Dew point: 43 °F

Location of MasonLocation

Historic Weather in Mason — Graph

°F

Mason temperature yesterday

Maximum temperature yesterday: 51 °F (at 11:53 AM)
Minimum temperature yesterday: 35 °F (at 3:53 AM)
Average temperature yesterday: 46 °F

Past Weeks' High & Low Weather Summary

 TemperatureHumidityPressure
High58 °F (Dec 24, 12:53 PM)100% (Dec 23, 6:01 PM)30.37 "Hg (Dec 23, 6:01 PM)
Low17 °F (Dec 21, 4:53 AM)52% (Dec 26, 5:53 PM)29.36 "Hg (Dec 24, 1:53 PM)
Average39 °F81%30.09 "Hg
* Reported Dec 13 12:53 AM — Midnight between Dec 27 and Dec 28, Mason, Weather by CustomWeather, © 2014

Note: Actual official high and low records may vary slightly from our data, if they occured in-between our weather recording intervals... More about our weather records

Advertising

Mason weather history for previous 24 hours

 ConditionsComfort  
Time TempWeatherWind HumidityBarometerVisibility
12:00 AM
Dec 28
46 °FLight rain. Fog.13 mph93%30.08 "Hg6 mi
10:53 PM
Dec 27
48 °FLight rain. Fog.6 mph96%30.09 "Hg4 mi
10:00 PM48 °FLight rain. Fog.5 mph96%30.08 "Hg2 mi
8:53 PM48 °FOvercast.3 mph96%30.08 "Hg10 mi
7:53 PM48 °FOvercast.6 mph96%30.08 "Hg10 mi
6:53 PM48 °FLight rain. Fog.3 mph96%30.11 "Hg6 mi
5:53 PM48 °FLight rain. Fog.3 mph96%30.13 "Hg2 mi
5:00 PM48 °FLight rain. Fog.5 mph96%30.11 "Hg1 mi
3:53 PM49 °FLight rain. Fog.6 mph90%30.12 "Hg6 mi
2:53 PM50 °FLight rain. Overcast.5 mph83%30.11 "Hg9 mi
1:53 PM50 °FOvercast.9 mph80%30.13 "Hg10 mi
12:53 PM51 °FOvercast.15 mph71%30.14 "Hg10 mi
11:53 AM51 °FOvercast.7 mph66%30.18 "Hg10 mi
10:53 AM48 °FMostly cloudy.6 mph71%30.21 "Hg10 mi
9:53 AM48 °FOvercast.5 mph66%30.21 "Hg10 mi
8:53 AM45 °FMostly cloudy.3 mph74%30.23 "Hg10 mi
7:53 AM45 °FOvercast.3 mph68%30.22 "Hg10 mi
6:53 AM42 °FOvercast.No wind79%30.21 "Hg10 mi
5:53 AM42 °FMostly cloudy.5 mph73%30.20 "Hg10 mi
4:53 AM42 °FOvercast.3 mph76%30.20 "Hg10 mi
3:53 AM35 °FPassing clouds.3 mph92%30.20 "Hg10 mi
2:53 AM37 °FPassing clouds.No wind89%30.21 "Hg10 mi
1:53 AM40 °FOvercast.No wind86%30.21 "Hg10 mi
Weather by CustomWeather, © 2014

See weather overviewHow to use our weather pages